Regional Weather Roundup
Issued by NWS

Home | Current Version | Previous Version | Graphics & Text | Print | Product List | Glossary On
Versions: 1 2 3 4 5 6 7 8 9 10 11 12 13 14 15 16 17 18 19 20 21 22 23 24 25 26 27 28 29 30 31 32 33 34 35 36 37 38 39 40 41 42 43 44 45 46 47 48 49 50
000
ASUS43 KMKX 221400
RWRWI

WISCONSIN REGIONAL WEATHER ROUNDUP
NATIONAL WEATHER SERVICE MILWAUKEE/SULLIVAN WI
900 AM CDT TUE JUL 22 2014

NOTE: "FAIR" INDICATES FEW OR NO CLOUDS BELOW 12,000 FEET WITH NO
SIGNIFICANT WEATHER AND/OR OBSTRUCTIONS TO VISIBILITY.

WIZ001-002-006>008-014>016-023>028-221500-
NORTHWEST WISCONSIN

CITY           SKY/WX    TMP DP  RH WIND       PRES   REMARKS
SUPERIOR ARPT  CLOUDY    71  65  80 NW15      29.86R
ASHLAND        PTSUNNY   73  65  75 W15G25    29.84R
HAYWARD        CLOUDY    72  65  78 W8        29.91R
SIREN          PTSUNNY   72  65  78 NW10      29.91R
RICE LAKE      MOSUNNY   74  63  67 W13       29.92R
LADYSMITH      PTSUNNY   79  71  75 W14G22    29.88R HX  82
EAU CLAIRE     MOSUNNY   82  72  71 W21G29    29.88R HX  87
MENOMONIE      SUNNY     79  65  61 W20G26    29.91R HX  81
NEW RICHMOND   MOSUNNY   73  63  70 NW15G24   29.94R
OSCEOLA        CLOUDY    72  65  79 NW10G18   29.96R
$$

WIZ003>005-009-010-017-018-221500-
NORTH CENTRAL WISCONSIN

CITY           SKY/WX    TMP DP  RH WIND       PRES   REMARKS
WOODRUFF       PTSUNNY   77  73  86 SW10G20   29.83F
RHINELANDER    CLOUDY    75  70  84 SW15G21   29.85F
EAGLE RIVER    CLOUDY    74  68  81 SW13G22   29.80F
LAND O LAKES   CLOUDY    74  71  88 SW8G22    29.82S
PHILLIPS       CLOUDY    77  72  85 SW13G23   29.84S
TOMAHAWK       CLOUDY    74  69  85 SW5       29.87F
MEDFORD        CLOUDY    76  72  87 SW9G17    29.88F
MERRILL        CLOUDY    74  70  87 SW9       29.87F
$$

WIZ029-030-035-036-043>047-221500-
CENTRAL WISCONSIN

CITY           SKY/WX    TMP DP  RH WIND       PRES   REMARKS
WAUSAU         CLOUDY    76  69  79 SW12      29.87S
MOSINEE        CLOUDY    73  72  94 SW12      29.90S
MARSHFIELD     CLOUDY    77  71  82 W13       29.89F
STEVENS POINT  CLOUDY    75  67  78 SW10G17   29.90S
WAUPACA        MOSUNNY   81  70  69 SW13G18   29.89S HX  84
WAUTOMA        NOT AVBL
WISC RAPIDS    CLOUDY    78  70  76 SW10      29.91S HX  80
CAMP DOUGLAS   NOT AVBL
$$

WIZ011>013-019>022-031-037>040-048>050-221500-
NORTHEAST WISCONSIN

CITY           SKY/WX    TMP DP  RH WIND       PRES   REMARKS
ANTIGO         CLOUDY    72  69  90 SW15      29.90R
STURGEON BAY   MOSUNNY   72  64  78 S14       29.88F
GREEN BAY      CLOUDY    77  69  76 S13G25    29.89S
MANITOWOC      NOT AVBL
APPLETON       PTSUNNY   75  66  73 SW14G21   29.90F
CLINTONVILLE   PTSUNNY   77  68  73 SW13      29.88S
OSHKOSH        SUNNY     79  69  71 SW17G26   29.90F HX  81
$$

WIZ032>034-041-042-053>061-221500-
SOUTHWEST WISCONSIN

CITY           SKY/WX    TMP DP  RH WIND       PRES   REMARKS
LA CROSSE      CLOUDY    80  72  76 VRB5      29.91R HX  84
SPARTA         CLOUDY    78  69  73 SW6       29.91S HX  80
VIROQUA        CLOUDY    76  70  81 SW9       29.94S
BOSCOBEL       MOSUNNY   82  70  66 SW9       29.92S HX  86
PRAIRIE DU CHI SUNNY     80  68  67 S5        29.91F HX  82
PLATTEVILLE    FAIR      77  70  79 S13       29.97R
$$

WIZ056-057-062-063-064-067-068-221500-
SOUTH CENTRAL WISCONSIN

CITY           SKY/WX    TMP DP  RH WIND       PRES   REMARKS
BARABOO/DELLS  MOSUNNY   78  67  67 SW14G20   29.93R HX  80
LONE ROCK      NOT AVBL
WATERTOWN      PTSUNNY   76  68  76 S8        29.96F
MADISON        PTSUNNY   79  68  69 S15       29.93F HX  81
MIDDLETON      FAIR      79  66  64 S14       29.94F HX  81
MONROE         PTSUNNY   73  68  83 S13G18    29.97S
JANESVILLE     MOSUNNY   79  66  65 S12       29.97S HX  81
$$

WIZ051-052-058>065-066-070>072-221500-
SOUTHEAST WISCONSIN

CITY           SKY/WX    TMP DP  RH WIND       PRES   REMARKS
MILWAUKEE      PTSUNNY   77  66  68 SW12      29.97S
WAUKESHA       NOT AVBL
MILWAUKEE/TIMM SUNNY     75  64  69 SW14      29.98S
RACINE         MOSUNNY   79  67  66 SW17      30.00S HX  81
BURLINGTON     MOSUNNY   73  66  79 S7        29.99S
KENOSHA        MOSUNNY   78  67  68 SW12G21   29.99F HX  80
FOND DU LAC    MOSUNNY   79  67  66 S15G30    29.91F HX  81
SHEBOYGAN      PTSUNNY   78  68  71 S15       29.93F HX  80
WEST BEND      MOSUNNY   73  64  73 S7        29.96F
JUNEAU         MOSUNNY   76  52  43 S14       29.96F
$$

LSZ147-162-221500-
LAKE SUPERIOR

STATION/POSITION TIME  TEMP    WIND        PRES    WAVE
                       AIR SEA DIR/SP/G            HT/PER
                 (UTC) (F)     (DEG/KT/KT) (MB)    (FT/S)
W MID LAKE BUOY  1250   58 39  230/  6/  8 1005.8F   2/ 3
PORT WING        1320   70     250/ 14/ 21 1009.5R
SAXON HARBOR     1300          250/  7/ 23 1008.1R
$$

LMZ867-665-643>646-221500-
LAKE MICHIGAN

STATION/POSITION TIME  TEMP    WIND        PRES    WAVE
                       AIR SEA DIR/SP/G            HT/PER
                 (UTC) (F)     (DEG/KT/KT) (MB)    (FT/S)
N MID LAKE BUOY  1250   62 57  190/ 19/ 23 1012.0F   3/ 5
NORTHPORT PIER   1320   69     160/ 12/ 22 1011.2F
KEWAUNEE LAKESHO 1300   55     180/ 13/ 14 1013.8F
SHEBOYGAN LAKESH 1300   70     180/ 16/ 17 1014.7R
PORT WASHINGTON  1340   61     190/  7/ 11 1014.9F
ATWATER BUOY     1300   56     170/ 10     1015.8F
MILWAUKEE LAKESH 1300   73     210/ 11/ 14   N/A
S MID LAKE BUOY  1250   70 68  180/ 16/ 17 1016.5F
KENOSHA   LAKESH 1300   63     170/ 16/ 17   N/A
$$

TC  - TEMPERATURE IN CELSIUS
VSB - VISIBILITY IN STATUTE MILES
WCI - WIND CHILL INDEX
HX  - HEAT INDEX




USA.gov is the U.S. government's official web portal to all federal, state and local government web resources and services.